owner,sensor,date,latitude,longitude,vertical_datum,mass_concentration_of_oxygen_in_sea_water,qcFlag 
DISL,ioos:station:DISL:MHPA:1,2009-10-01T00:00:00Z,30.6671,-87.9365,3.703,5.31,1111122 
DISL,ioos:station:DISL:MHPA:1,2009-10-01T00:30:00Z,30.6671,-87.9365,3.725,5.2,1111122 
DISL,ioos:station:DISL:MHPA:1,2009-10-01T01:00:00Z,30.6671,-87.9365,3.738,5.12,1111122 
DISL,ioos:station:DISL:MHPA:1,2009-10-01T01:30:00Z,30.6671,-87.9365,3.759,5.04,1111122 
DISL,ioos:station:DISL:MHPA:1,2009-10-01T02:00:00Z,30.6671,-87.9365,3.829,4.88,1111122 
DISL,ioos:station:DISL:MHPA:1,2009-10-01T02:30:00Z,30.6671,-87.9365,3.825,4.89,1111122 
DISL,ioos:station:DISL:MHPA:1,2009-10-01T03:00:00Z,30.6671,-87.9365,3.884,4.8,1111122 
DISL,ioos:station:DISL:MHPA:1,2009-10-01T03:30:00Z,30.6671,-87.9365,3.963,4.78,1111122 
DISL,ioos:station:DISL:MHPA:1,2009-10-01T04:00:00Z,30.6671,-87.9365,3.976,4.9,1111122 
DISL,ioos:station:DISL:MHPA:1,2009-10-01T04:30:00Z,30.6671,-87.9365,4.037,4.84,1111122 
DISL,ioos:station:DISL:MHPA:1,2009-10-01T05:00:00Z,30.6671,-87.9365,4.099,4.64,1111122 
DISL,ioos:station:DISL:MHPA:1,2009-10-01T05:30:00Z,30.6671,-87.9365,4.096,4.67,1111122 
DISL,ioos:station:DISL:MHPA:1,2009-10-01T06:00:00Z,30.6671,-87.9365,4.091,4.73,1111122 
DISL,ioos:station:DISL:MHPA:1,2009-10-01T06:30:00Z,30.6671,-87.9365,4.074,4.69,1111122 
DISL,ioos:station:DISL:MHPA:1,2009-10-01T07:00:00Z,30.6671,-87.9365,4.052,4.68,1111122 
DISL,ioos:station:DISL:MHPA:1,2009-10-01T07:30:00Z,30.6671,-87.9365,4.024,4.59,1111122 
DISL,ioos:station:DISL:MHPA:1,2009-10-01T08:00:00Z,30.6671,-87.9365,3.965,4.57,1111122 
DISL,ioos:station:DISL:MHPA:1,2009-10-01T08:30:00Z,30.6671,-87.9365,3.944,4.53,1111122 
DISL,ioos:station:DISL:MHPA:1,2009-10-01T09:00:00Z,30.6671,-87.9365,3.927,4.52,1111122 
DISL,ioos:station:DISL:MHPA:1,2009-10-01T09:30:00Z,30.6671,-87.9365,3.902,4.47,1111122 
DISL,ioos:station:DISL:MHPA:1,2009-10-01T10:00:00Z,30.6671,-87.9365,3.896,4.41,1111122 
DISL,ioos:station:DISL:MHPA:1,2009-10-01T10:30:00Z,30.6671,-87.9365,3.924,4.39,1111122 
DISL,ioos:station:DISL:MHPA:1,2009-10-01T11:00:00Z,30.6671,-87.9365,3.955,4.39,1111122 
DISL,ioos:station:DISL:MHPA:1,2009-10-01T11:30:00Z,30.6671,-87.9365,3.995,4.37,1111122 
DISL,ioos:station:DISL:MHPA:1,2009-10-01T12:00:00Z,30.6671,-87.9365,4.068,4.17,1111122 
DISL,ioos:station:DISL:MHPA:1,2009-10-01T12:30:00Z,30.6671,-87.9365,4.114,4.06,1111122 
DISL,ioos:station:DISL:MHPA:1,2009-10-01T13:00:00Z,30.6671,-87.9365,4.164,4.06,1111122 
DISL,ioos:station:DISL:MHPA:1,2009-10-01T13:30:00Z,30.6671,-87.9365,4.276,4.27,1111122 
DISL,ioos:station:DISL:MHPA:1,2009-10-01T14:00:00Z,30.6671,-87.9365,4.351,4.4,1111122 
DISL,ioos:station:DISL:MHPA:1,2009-10-01T14:30:00Z,30.6671,-87.9365,4.453,4.67,1111122 
DISL,ioos:station:DISL:MHPA:1,2009-10-01T15:00:00Z,30.6671,-87.9365,4.552,4.72,1111122 
DISL,ioos:station:DISL:MHPA:1,2009-10-01T15:30:00Z,30.6671,-87.9365,4.566,4.52,1111122 
DISL,ioos:station:DISL:MHPA:1,2009-10-01T16:00:00Z,30.6671,-87.9365,4.546,4.65,1111122 
DISL,ioos:station:DISL:MHPA:1,2009-10-01T16:30:00Z,30.6671,-87.9365,4.544,4.59,1111122 
DISL,ioos:station:DISL:MHPA:1,2009-10-01T17:00:00Z,30.6671,-87.9365,4.57,4.58,1111122 
DISL,ioos:station:DISL:MHPA:1,2009-10-01T17:30:00Z,30.6671,-87.9365,4.559,4.87,1111122 
DISL,ioos:station:DISL:MHPA:1,2009-10-01T18:00:00Z,30.6671,-87.9365,4.555,5.27,1111122 
DISL,ioos:station:DISL:MHPA:1,2009-10-01T18:30:00Z,30.6671,-87.9365,4.512,5.01,1111122 
DISL,ioos:station:DISL:MHPA:1,2009-10-01T19:00:00Z,30.6671,-87.9365,4.488,4.93,1111122 
DISL,ioos:station:DISL:MHPA:1,2009-10-01T19:30:00Z,30.6671,-87.9365,4.427,5.09,1111122 
DISL,ioos:station:DISL:MHPA:1,2009-10-01T20:00:00Z,30.6671,-87.9365,4.334,5.39,1111122 
DISL,ioos:station:DISL:MHPA:1,2009-10-01T20:30:00Z,30.6671,-87.9365,4.235,5.4,1111122 
DISL,ioos:station:DISL:MHPA:1,2009-10-01T21:00:00Z,30.6671,-87.9365,4.132,5.72,1111122 
DISL,ioos:station:DISL:MHPA:1,2009-10-01T21:30:00Z,30.6671,-87.9365,4.039,5.51,1111122 
DISL,ioos:station:DISL:MHPA:1,2009-10-01T22:00:00Z,30.6671,-87.9365,4.001,5.38,1111122 
DISL,ioos:station:DISL:MHPA:1,2009-10-01T22:30:00Z,30.6671,-87.9365,3.941,5.53,1111122 
DISL,ioos:station:DISL:MHPA:1,2009-10-01T23:00:00Z,30.6671,-87.9365,3.924,5.48,1111122 
DISL,ioos:station:DISL:MHPA:1,2009-10-01T23:30:00Z,30.6671,-87.9365,3.996,5.73,1111122 
DISL,ioos:station:DISL:MHPA:1,2009-10-02T00:00:00Z,30.6671,-87.9365,4.017,6.33,1111122 
DISL,ioos:station:DISL:MHPA:1,2009-10-02T00:30:00Z,30.6671,-87.9365,4.08,6.63,1111122 
DISL,ioos:station:DISL:MHPA:1,2009-10-02T01:00:00Z,30.6671,-87.9365,4.091,6.13,1111122 
DISL,ioos:station:DISL:MHPA:1,2009-10-02T01:30:00Z,30.6671,-87.9365,4.129,6.02,1111122 
DISL,ioos:station:DISL:MHPA:1,2009-10-02T02:00:00Z,30.6671,-87.9365,4.181,5.77,1111122 
DISL,ioos:station:DISL:MHPA:1,2009-10-02T02:30:00Z,30.6671,-87.9365,4.264,5.36,1111122 
DISL,ioos:station:DISL:MHPA:1,2009-10-02T03:00:00Z,30.6671,-87.9365,4.368,5.33,1111122 
DISL,ioos:station:DISL:MHPA:1,2009-10-02T03:30:00Z,30.6671,-87.9365,4.483,5.38,1111122 
DISL,ioos:station:DISL:MHPA:1,2009-10-02T04:00:00Z,30.6671,-87.9365,4.599,5.48,1111122 
DISL,ioos:station:DISL:MHPA:1,2009-10-02T04:30:00Z,30.6671,-87.9365,4.717,5.68,1111122 
DISL,ioos:station:DISL:MHPA:1,2009-10-02T05:00:00Z,30.6671,-87.9365,4.839,5.81,1111122 
DISL,ioos:station:DISL:MHPA:1,2009-10-02T05:30:00Z,30.6671,-87.9365,4.868,5.49,1111122 
DISL,ioos:station:DISL:MHPA:1,2009-10-02T06:00:00Z,30.6671,-87.9365,4.861,5.26,1111122 
DISL,ioos:station:DISL:MHPA:1,2009-10-02T06:30:00Z,30.6671,-87.9365,4.899,4.94,1111122 
DISL,ioos:station:DISL:MHPA:1,2009-10-02T07:00:00Z,30.6671,-87.9365,4.893,4.96,1111122 
DISL,ioos:station:DISL:MHPA:1,2009-10-02T07:30:00Z,30.6671,-87.9365,4.895,5.06,1111122 
DISL,ioos:station:DISL:MHPA:1,2009-10-02T08:00:00Z,30.6671,-87.9365,4.94,5.21,1111122 
DISL,ioos:station:DISL:MHPA:1,2009-10-02T08:30:00Z,30.6671,-87.9365,4.93,5.3,1111122 
DISL,ioos:station:DISL:MHPA:1,2009-10-02T09:00:00Z,30.6671,-87.9365,4.926,5.2,1111122 
DISL,ioos:station:DISL:MHPA:1,2009-10-02T09:30:00Z,30.6671,-87.9365,4.901,5.33,1111122 
DISL,ioos:station:DISL:MHPA:1,2009-10-02T10:00:00Z,30.6671,-87.9365,4.829,5.42,1111122 
DISL,ioos:station:DISL:MHPA:1,2009-10-02T10:30:00Z,30.6671,-87.9365,4.73,5.66,1111122 
DISL,ioos:station:DISL:MHPA:1,2009-10-02T11:00:00Z,30.6671,-87.9365,4.638,5.57,1111122 
DISL,ioos:station:DISL:MHPA:1,2009-10-02T11:30:00Z,30.6671,-87.9365,4.52,5.39,1111122 
DISL,ioos:station:DISL:MHPA:1,2009-10-02T12:00:00Z,30.6671,-87.9365,4.432,5.38,1111122 
DISL,ioos:station:DISL:MHPA:1,2009-10-02T12:30:00Z,30.6671,-87.9365,4.425,4.86,1111122 
DISL,ioos:station:DISL:MHPA:1,2009-10-02T13:00:00Z,30.6671,-87.9365,4.406,4.56,1111122 
DISL,ioos:station:DISL:MHPA:1,2009-10-02T13:30:00Z,30.6671,-87.9365,4.422,4.57,1111122 
DISL,ioos:station:DISL:MHPA:1,2009-10-02T14:00:00Z,30.6671,-87.9365,4.474,4.94,1111122 
DISL,ioos:station:DISL:MHPA:1,2009-10-02T14:30:00Z,30.6671,-87.9365,4.537,4.63,1111122 
DISL,ioos:station:DISL:MHPA:1,2009-10-02T15:00:00Z,30.6671,-87.9365,4.594,4.62,1111122 
DISL,ioos:station:DISL:MHPA:1,2009-10-02T15:30:00Z,30.6671,-87.9365,4.636,4.73,1111122 
DISL,ioos:station:DISL:MHPA:1,2009-10-02T16:00:00Z,30.6671,-87.9365,4.618,4.72,1111122 
DISL,ioos:station:DISL:MHPA:1,2009-10-02T16:30:00Z,30.6671,-87.9365,4.665,4.7,1111122 
DISL,ioos:station:DISL:MHPA:1,2009-10-02T17:00:00Z,30.6671,-87.9365,4.597,4.8,1111122 
DISL,ioos:station:DISL:MHPA:1,2009-10-02T17:30:00Z,30.6671,-87.9365,4.57,4.82,1111122 
DISL,ioos:station:DISL:MHPA:1,2009-10-02T18:00:00Z,30.6671,-87.9365,4.572,4.9,1111122 
DISL,ioos:station:DISL:MHPA:1,2009-10-02T18:30:00Z,30.6671,-87.9365,4.472,4.84,1111122 
DISL,ioos:station:DISL:MHPA:1,2009-10-02T19:00:00Z,30.6671,-87.9365,4.511,5.05,1111122 
DISL,ioos:station:DISL:MHPA:1,2009-10-02T19:30:00Z,30.6671,-87.9365,4.499,5.13,1111122 
DISL,ioos:station:DISL:MHPA:1,2009-10-02T20:00:00Z,30.6671,-87.9365,4.549,5.43,1111122 
DISL,ioos:station:DISL:MHPA:1,2009-10-02T20:30:00Z,30.6671,-87.9365,4.479,5.15,1111122 
DISL,ioos:station:DISL:MHPA:1,2009-10-02T21:00:00Z,30.6671,-87.9365,4.405,5.42,1111122 
DISL,ioos:station:DISL:MHPA:1,2009-10-02T21:30:00Z,30.6671,-87.9365,4.395,5.12,1111122 
DISL,ioos:station:DISL:MHPA:1,2009-10-02T22:00:00Z,30.6671,-87.9365,4.32,5.27,1111122 
DISL,ioos:station:DISL:MHPA:1,2009-10-02T22:30:00Z,30.6671,-87.9365,4.23,5.42,1111122 
DISL,ioos:station:DISL:MHPA:1,2009-10-02T23:00:00Z,30.6671,-87.9365,4.192,5.3,1111122 
DISL,ioos:station:DISL:MHPA:1,2009-10-02T23:30:00Z,30.6671,-87.9365,4.138,5.35,1111122 
DISL,ioos:station:DISL:MHPA:1,2009-10-03T00:00:00Z,30.6671,-87.9365,4.143,5.3,1111122 
DISL,ioos:station:DISL:MHPA:1,2009-10-03T00:30:00Z,30.6671,-87.9365,4.148,5.24,1111122 
DISL,ioos:station:DISL:MHPA:1,2009-10-03T01:00:00Z,30.6671,-87.9365,4.166,5.22,1111122 
DISL,ioos:station:DISL:MHPA:1,2009-10-03T01:30:00Z,30.6671,-87.9365,4.233,5.14,1111122 
DISL,ioos:station:DISL:MHPA:1,2009-10-03T02:00:00Z,30.6671,-87.9365,4.287,5.13,1111122 
DISL,ioos:station:DISL:MHPA:1,2009-10-03T02:30:00Z,30.6671,-87.9365,4.299,5.17,1111122 
DISL,ioos:station:DISL:MHPA:1,2009-10-03T03:00:00Z,30.6671,-87.9365,4.415,5.09,1111122 
DISL,ioos:station:DISL:MHPA:1,2009-10-03T03:30:00Z,30.6671,-87.9365,4.475,5.02,1111122 
DISL,ioos:station:DISL:MHPA:1,2009-10-03T04:00:00Z,30.6671,-87.9365,4.476,5.01,1111122 
DISL,ioos:station:DISL:MHPA:1,2009-10-03T04:30:00Z,30.6671,-87.9365,4.556,5.18,1111122 
DISL,ioos:station:DISL:MHPA:1,2009-10-03T05:00:00Z,30.6671,-87.9365,4.597,5.04,1111122 
DISL,ioos:station:DISL:MHPA:1,2009-10-03T05:30:00Z,30.6671,-87.9365,4.573,4.98,1111122 
DISL,ioos:station:DISL:MHPA:1,2009-10-03T06:00:00Z,30.6671,-87.9365,4.512,4.88,1111122 
DISL,ioos:station:DISL:MHPA:1,2009-10-03T06:30:00Z,30.6671,-87.9365,4.479,4.9,1111122 
DISL,ioos:station:DISL:MHPA:1,2009-10-03T07:00:00Z,30.6671,-87.9365,4.446,4.87,1111122 
DISL,ioos:station:DISL:MHPA:1,2009-10-03T07:30:00Z,30.6671,-87.9365,4.341,4.82,1111122 
DISL,ioos:station:DISL:MHPA:1,2009-10-03T08:00:00Z,30.6671,-87.9365,4.25,4.73,1111122 
DISL,ioos:station:DISL:MHPA:1,2009-10-03T08:30:00Z,30.6671,-87.9365,4.133,4.71,1111122 
DISL,ioos:station:DISL:MHPA:1,2009-10-03T09:00:00Z,30.6671,-87.9365,4.043,4.68,1111122 
DISL,ioos:station:DISL:MHPA:1,2009-10-03T09:30:00Z,30.6671,-87.9365,3.964,4.61,1111122 
DISL,ioos:station:DISL:MHPA:1,2009-10-03T10:00:00Z,30.6671,-87.9365,3.841,4.51,1111122 
DISL,ioos:station:DISL:MHPA:1,2009-10-03T10:30:00Z,30.6671,-87.9365,3.757,4.6,1111122 
DISL,ioos:station:DISL:MHPA:1,2009-10-03T11:00:00Z,30.6671,-87.9365,3.688,4.56,1111122 
DISL,ioos:station:DISL:MHPA:1,2009-10-03T11:30:00Z,30.6671,-87.9365,3.607,4.55,1111122 
DISL,ioos:station:DISL:MHPA:1,2009-10-03T12:00:00Z,30.6671,-87.9365,3.61,4.3,1111122 
DISL,ioos:station:DISL:MHPA:1,2009-10-03T12:30:00Z,30.6671,-87.9365,3.572,4.29,1111122 
DISL,ioos:station:DISL:MHPA:1,2009-10-03T13:00:00Z,30.6671,-87.9365,3.626,4.28,1111122 
DISL,ioos:station:DISL:MHPA:1,2009-10-03T13:30:00Z,30.6671,-87.9365,3.655,4.42,1111122 
DISL,ioos:station:DISL:MHPA:1,2009-10-03T14:00:00Z,30.6671,-87.9365,3.646,4.43,1111122 
DISL,ioos:station:DISL:MHPA:1,2009-10-03T14:30:00Z,30.6671,-87.9365,3.769,4.64,1111122 
DISL,ioos:station:DISL:MHPA:1,2009-10-03T15:00:00Z,30.6671,-87.9365,3.853,4.67,1111122 
DISL,ioos:station:DISL:MHPA:1,2009-10-03T15:30:00Z,30.6671,-87.9365,3.962,4.75,1111122 
DISL,ioos:station:DISL:MHPA:1,2009-10-03T16:00:00Z,30.6671,-87.9365,4.116,4.9,1111122 
DISL,ioos:station:DISL:MHPA:1,2009-10-03T16:30:00Z,30.6671,-87.9365,4.174,4.95,1111122 
DISL,ioos:station:DISL:MHPA:1,2009-10-03T17:00:00Z,30.6671,-87.9365,4.187,4.78,1111122 
DISL,ioos:station:DISL:MHPA:1,2009-10-03T17:30:00Z,30.6671,-87.9365,4.221,5.07,1111122 
DISL,ioos:station:DISL:MHPA:1,2009-10-03T18:00:00Z,30.6671,-87.9365,4.277,5.24,1111122 
DISL,ioos:station:DISL:MHPA:1,2009-10-03T18:30:00Z,30.6671,-87.9365,4.332,5.05,1111122 
DISL,ioos:station:DISL:MHPA:1,2009-10-03T19:00:00Z,30.6671,-87.9365,4.414,5.41,1111122 
DISL,ioos:station:DISL:MHPA:1,2009-10-03T19:30:00Z,30.6671,-87.9365,4.457,5.4,1111122 
DISL,ioos:station:DISL:MHPA:1,2009-10-03T20:00:00Z,30.6671,-87.9365,4.463,5.6,1111122 
DISL,ioos:station:DISL:MHPA:1,2009-10-03T20:30:00Z,30.6671,-87.9365,4.522,5.83,1111122 
DISL,ioos:station:DISL:MHPA:1,2009-10-03T21:00:00Z,30.6671,-87.9365,4.506,5.89,1111122 
DISL,ioos:station:DISL:MHPA:1,2009-10-03T21:30:00Z,30.6671,-87.9365,4.487,5.81,1111122 
DISL,ioos:station:DISL:MHPA:1,2009-10-03T22:00:00Z,30.6671,-87.9365,4.489,5.66,1111122 
DISL,ioos:station:DISL:MHPA:1,2009-10-03T22:30:00Z,30.6671,-87.9365,4.462,5.58,1111122 
DISL,ioos:station:DISL:MHPA:1,2009-10-03T23:00:00Z,30.6671,-87.9365,4.423,5.55,1111122 
DISL,ioos:station:DISL:MHPA:1,2009-10-03T23:30:00Z,30.6671,-87.9365,4.366,5.58,1111122 
DISL,ioos:station:DISL:MHPA:1,2009-10-04T00:00:00Z,30.6671,-87.9365,4.321,5.55,1111122 
DISL,ioos:station:DISL:MHPA:1,2009-10-04T00:30:00Z,30.6671,-87.9365,4.295,5.49,1111122 
DISL,ioos:station:DISL:MHPA:1,2009-10-04T01:00:00Z,30.6671,-87.9365,4.309,5.46,1111122 
DISL,ioos:station:DISL:MHPA:1,2009-10-04T01:30:00Z,30.6671,-87.9365,4.38,5.19,1111122 
DISL,ioos:station:DISL:MHPA:1,2009-10-04T02:00:00Z,30.6671,-87.9365,4.446,5.21,1111122 
DISL,ioos:station:DISL:MHPA:1,2009-10-04T02:30:00Z,30.6671,-87.9365,4.508,5.15,1111122 
DISL,ioos:station:DISL:MHPA:1,2009-10-04T03:00:00Z,30.6671,-87.9365,4.521,5.0,1111122 
DISL,ioos:station:DISL:MHPA:1,2009-10-04T03:30:00Z,30.6671,-87.9365,4.564,5.14,1111122 
DISL,ioos:station:DISL:MHPA:1,2009-10-04T04:00:00Z,30.6671,-87.9365,4.606,5.11,1111122 
DISL,ioos:station:DISL:MHPA:1,2009-10-04T04:30:00Z,30.6671,-87.9365,4.626,5.11,1111122 
DISL,ioos:station:DISL:MHPA:1,2009-10-04T05:00:00Z,30.6671,-87.9365,4.664,5.35,1111122 
DISL,ioos:station:DISL:MHPA:1,2009-10-04T05:30:00Z,30.6671,-87.9365,4.649,5.02,1111122 
DISL,ioos:station:DISL:MHPA:1,2009-10-04T06:00:00Z,30.6671,-87.9365,4.598,5.01,1111122 
DISL,ioos:station:DISL:MHPA:1,2009-10-04T06:30:00Z,30.6671,-87.9365,4.578,4.98,1111122 
DISL,ioos:station:DISL:MHPA:1,2009-10-04T07:00:00Z,30.6671,-87.9365,4.527,4.87,1111122 
DISL,ioos:station:DISL:MHPA:1,2009-10-04T07:30:00Z,30.6671,-87.9365,4.454,4.95,1111122 
DISL,ioos:station:DISL:MHPA:1,2009-10-04T08:00:00Z,30.6671,-87.9365,4.338,4.85,1111122 
DISL,ioos:station:DISL:MHPA:1,2009-10-04T08:30:00Z,30.6671,-87.9365,4.267,4.84,1111122 
DISL,ioos:station:DISL:MHPA:1,2009-10-04T09:00:00Z,30.6671,-87.9365,4.139,4.85,1111122 
DISL,ioos:station:DISL:MHPA:1,2009-10-04T09:30:00Z,30.6671,-87.9365,4.039,5.01,1111122 
DISL,ioos:station:DISL:MHPA:1,2009-10-04T10:00:00Z,30.6671,-87.9365,3.956,5.04,1111122 
DISL,ioos:station:DISL:MHPA:1,2009-10-04T10:30:00Z,30.6671,-87.9365,3.899,5.1,1111122 
DISL,ioos:station:DISL:MHPA:1,2009-10-04T11:00:00Z,30.6671,-87.9365,3.833,5.14,1111122 
DISL,ioos:station:DISL:MHPA:1,2009-10-04T11:30:00Z,30.6671,-87.9365,3.746,5.13,1111122 
DISL,ioos:station:DISL:MHPA:1,2009-10-04T12:00:00Z,30.6671,-87.9365,3.663,5.1,1111122 
DISL,ioos:station:DISL:MHPA:1,2009-10-04T12:30:00Z,30.6671,-87.9365,3.608,5.15,1111122 
DISL,ioos:station:DISL:MHPA:1,2009-10-04T13:00:00Z,30.6671,-87.9365,3.6,5.18,1111122 
DISL,ioos:station:DISL:MHPA:1,2009-10-04T13:30:00Z,30.6671,-87.9365,3.584,5.14,1111122 
DISL,ioos:station:DISL:MHPA:1,2009-10-04T14:00:00Z,30.6671,-87.9365,3.643,5.26,1111122 
DISL,ioos:station:DISL:MHPA:1,2009-10-04T14:30:00Z,30.6671,-87.9365,3.835,5.33,1111122 
DISL,ioos:station:DISL:MHPA:1,2009-10-04T15:00:00Z,30.6671,-87.9365,3.984,5.42,1111122 
DISL,ioos:station:DISL:MHPA:1,2009-10-04T15:30:00Z,30.6671,-87.9365,4.234,5.46,1111122 
DISL,ioos:station:DISL:MHPA:1,2009-10-04T16:00:00Z,30.6671,-87.9365,4.499,5.55,1111122 
DISL,ioos:station:DISL:MHPA:1,2009-10-04T16:30:00Z,30.6671,-87.9365,4.728,5.55,1111122 
DISL,ioos:station:DISL:MHPA:1,2009-10-04T17:00:00Z,30.6671,-87.9365,4.619,5.55,1111122 
DISL,ioos:station:DISL:MHPA:1,2009-10-04T17:30:00Z,30.6671,-87.9365,4.721,5.74,1111122 
DISL,ioos:station:DISL:MHPA:1,2009-10-04T18:00:00Z,30.6671,-87.9365,4.775,5.8,1111122 
DISL,ioos:station:DISL:MHPA:1,2009-10-04T18:30:00Z,30.6671,-87.9365,4.68,5.77,1111122 
DISL,ioos:station:DISL:MHPA:1,2009-10-04T19:00:00Z,30.6671,-87.9365,4.646,5.81,1111122 
DISL,ioos:station:DISL:MHPA:1,2009-10-04T19:30:00Z,30.6671,-87.9365,4.717,5.76,1111122 
DISL,ioos:station:DISL:MHPA:1,2009-10-04T20:00:00Z,30.6671,-87.9365,4.885,5.75,1111122 
DISL,ioos:station:DISL:MHPA:1,2009-10-04T20:30:00Z,30.6671,-87.9365,4.746,5.71,1111122 
DISL,ioos:station:DISL:MHPA:1,2009-10-04T21:00:00Z,30.6671,-87.9365,4.852,5.85,1111122 
DISL,ioos:station:DISL:MHPA:1,2009-10-04T21:30:00Z,30.6671,-87.9365,4.866,5.76,1111122 
DISL,ioos:station:DISL:MHPA:1,2009-10-04T22:00:00Z,30.6671,-87.9365,5.219,5.86,1111122 
DISL,ioos:station:DISL:MHPA:1,2009-10-04T22:30:00Z,30.6671,-87.9365,5.078,5.89,1111122 
DISL,ioos:station:DISL:MHPA:1,2009-10-04T23:00:00Z,30.6671,-87.9365,4.756,5.89,1111122 
DISL,ioos:station:DISL:MHPA:1,2009-10-04T23:30:00Z,30.6671,-87.9365,4.889,5.93,1111122 
DISL,ioos:station:DISL:MHPA:1,2009-10-05T00:00:00Z,30.6671,-87.9365,4.894,5.89,1111122 
DISL,ioos:station:DISL:MHPA:1,2009-10-05T00:30:00Z,30.6671,-87.9365,4.863,5.89,1111122 
DISL,ioos:station:DISL:MHPA:1,2009-10-05T01:00:00Z,30.6671,-87.9365,4.94,5.98,1111122 
DISL,ioos:station:DISL:MHPA:1,2009-10-05T01:30:00Z,30.6671,-87.9365,5.027,5.93,1111122 
DISL,ioos:station:DISL:MHPA:1,2009-10-05T02:00:00Z,30.6671,-87.9365,5.152,5.95,1111122 
DISL,ioos:station:DISL:MHPA:1,2009-10-05T02:30:00Z,30.6671,-87.9365,5.233,5.87,1111122 
DISL,ioos:station:DISL:MHPA:1,2009-10-05T03:00:00Z,30.6671,-87.9365,5.165,5.8,1111122 
DISL,ioos:station:DISL:MHPA:1,2009-10-05T03:30:00Z,30.6671,-87.9365,5.326,5.67,1111122 
DISL,ioos:station:DISL:MHPA:1,2009-10-05T04:00:00Z,30.6671,-87.9365,5.396,5.66,1111122 
DISL,ioos:station:DISL:MHPA:1,2009-10-05T04:30:00Z,30.6671,-87.9365,5.314,5.66,1111122 
DISL,ioos:station:DISL:MHPA:1,2009-10-05T05:00:00Z,30.6671,-87.9365,5.426,5.7,1111122 
DISL,ioos:station:DISL:MHPA:1,2009-10-05T05:30:00Z,30.6671,-87.9365,5.354,5.63,1111122 
DISL,ioos:station:DISL:MHPA:1,2009-10-05T06:00:00Z,30.6671,-87.9365,5.312,5.68,1111122 
DISL,ioos:station:DISL:MHPA:1,2009-10-05T06:30:00Z,30.6671,-87.9365,5.402,5.73,1111122 
DISL,ioos:station:DISL:MHPA:1,2009-10-05T07:00:00Z,30.6671,-87.9365,5.272,5.79,1111122 
DISL,ioos:station:DISL:MHPA:1,2009-10-05T07:30:00Z,30.6671,-87.9365,5.101,5.91,1111122 
DISL,ioos:station:DISL:MHPA:1,2009-10-05T08:00:00Z,30.6671,-87.9365,5.201,5.87,1111122 
DISL,ioos:station:DISL:MHPA:1,2009-10-05T08:30:00Z,30.6671,-87.9365,5.283,6.05,1111122 
DISL,ioos:station:DISL:MHPA:1,2009-10-05T09:00:00Z,30.6671,-87.9365,5.131,6.06,1111122 
DISL,ioos:station:DISL:MHPA:1,2009-10-05T09:30:00Z,30.6671,-87.9365,4.82,6.03,1111122 
DISL,ioos:station:DISL:MHPA:1,2009-10-05T10:00:00Z,30.6671,-87.9365,4.83,6.13,1111122 
DISL,ioos:station:DISL:MHPA:1,2009-10-05T10:30:00Z,30.6671,-87.9365,4.682,6.01,1111122 
DISL,ioos:station:DISL:MHPA:1,2009-10-05T11:00:00Z,30.6671,-87.9365,4.349,5.97,1111122 
DISL,ioos:station:DISL:MHPA:1,2009-10-05T11:30:00Z,30.6671,-87.9365,4.229,5.81,1111122 
DISL,ioos:station:DISL:MHPA:1,2009-10-05T12:00:00Z,30.6671,-87.9365,4.169,5.63,1111122 
DISL,ioos:station:DISL:MHPA:1,2009-10-05T12:30:00Z,30.6671,-87.9365,4.193,5.67,1111122 
DISL,ioos:station:DISL:MHPA:1,2009-10-05T13:00:00Z,30.6671,-87.9365,4.132,5.67,1111122 
DISL,ioos:station:DISL:MHPA:1,2009-10-05T13:30:00Z,30.6671,-87.9365,4.032,5.62,1111122 
DISL,ioos:station:DISL:MHPA:1,2009-10-05T14:00:00Z,30.6671,-87.9365,3.912,5.59,1111122 
DISL,ioos:station:DISL:MHPA:1,2009-10-05T14:30:00Z,30.6671,-87.9365,3.862,5.61,1111122 
DISL,ioos:station:DISL:MHPA:1,2009-10-05T15:00:00Z,30.6671,-87.9365,3.72,5.58,1111122 
DISL,ioos:station:DISL:MHPA:1,2009-10-05T15:30:00Z,30.6671,-87.9365,4.005,5.62,1111122 
DISL,ioos:station:DISL:MHPA:1,2009-10-05T16:00:00Z,30.6671,-87.9365,4.078,5.63,1111122 
DISL,ioos:station:DISL:MHPA:1,2009-10-05T16:30:00Z,30.6671,-87.9365,3.945,5.61,1111122 
DISL,ioos:station:DISL:MHPA:1,2009-10-05T17:00:00Z,30.6671,-87.9365,3.87,5.6,1111122 
DISL,ioos:station:DISL:MHPA:1,2009-10-05T17:30:00Z,30.6671,-87.9365,3.825,5.72,1111122 
DISL,ioos:station:DISL:MHPA:1,2009-10-05T18:00:00Z,30.6671,-87.9365,3.829,5.62,1111122 
DISL,ioos:station:DISL:MHPA:1,2009-10-05T18:30:00Z,30.6671,-87.9365,3.863,5.75,1111122 
DISL,ioos:station:DISL:MHPA:1,2009-10-05T19:00:00Z,30.6671,-87.9365,4.01,5.96,1111122 
DISL,ioos:station:DISL:MHPA:1,2009-10-05T19:30:00Z,30.6671,-87.9365,4.096,6.05,1111122 
DISL,ioos:station:DISL:MHPA:1,2009-10-05T20:00:00Z,30.6671,-87.9365,4.166,6.23,1111122 
DISL,ioos:station:DISL:MHPA:1,2009-10-05T20:30:00Z,30.6671,-87.9365,4.3,6.37,1111122 
DISL,ioos:station:DISL:MHPA:1,2009-10-05T21:00:00Z,30.6671,-87.9365,4.339,6.48,1111122 
DISL,ioos:station:DISL:MHPA:1,2009-10-05T21:30:00Z,30.6671,-87.9365,4.395,6.48,1111122 
DISL,ioos:station:DISL:MHPA:1,2009-10-05T22:00:00Z,30.6671,-87.9365,4.502,6.49,1111122 
DISL,ioos:station:DISL:MHPA:1,2009-10-05T22:30:00Z,30.6671,-87.9365,4.577,6.38,1111122 
DISL,ioos:station:DISL:MHPA:1,2009-10-05T23:00:00Z,30.6671,-87.9365,4.572,6.12,1111122 
DISL,ioos:station:DISL:MHPA:1,2009-10-05T23:30:00Z,30.6671,-87.9365,4.602,6.16,1111122 
DISL,ioos:station:DISL:MHPA:1,2009-10-06T00:00:00Z,30.6671,-87.9365,4.57,6.06,1111122 
DISL,ioos:station:DISL:MHPA:1,2009-10-06T00:30:00Z,30.6671,-87.9365,4.576,6.28,1111122 
DISL,ioos:station:DISL:MHPA:1,2009-10-06T01:00:00Z,30.6671,-87.9365,4.678,5.94,1111122 
DISL,ioos:station:DISL:MHPA:1,2009-10-06T01:30:00Z,30.6671,-87.9365,4.645,5.93,1111122 
DISL,ioos:station:DISL:MHPA:1,2009-10-06T02:00:00Z,30.6671,-87.9365,4.674,5.91,1111122 
DISL,ioos:station:DISL:MHPA:1,2009-10-06T02:30:00Z,30.6671,-87.9365,4.729,5.89,1111122 
DISL,ioos:station:DISL:MHPA:1,2009-10-06T03:00:00Z,30.6671,-87.9365,4.815,5.83,1111122 
DISL,ioos:station:DISL:MHPA:1,2009-10-06T03:30:00Z,30.6671,-87.9365,4.971,5.79,1111122 
DISL,ioos:station:DISL:MHPA:1,2009-10-06T04:00:00Z,30.6671,-87.9365,5.008,5.78,1111122 
DISL,ioos:station:DISL:MHPA:1,2009-10-06T04:30:00Z,30.6671,-87.9365,5.075,5.82,1111122 
DISL,ioos:station:DISL:MHPA:1,2009-10-06T05:00:00Z,30.6671,-87.9365,5.043,5.93,1111122 
DISL,ioos:station:DISL:MHPA:1,2009-10-06T05:30:00Z,30.6671,-87.9365,5.04,5.95,1111122 
DISL,ioos:station:DISL:MHPA:1,2009-10-06T06:00:00Z,30.6671,-87.9365,4.983,5.95,1111122 
DISL,ioos:station:DISL:MHPA:1,2009-10-06T06:30:00Z,30.6671,-87.9365,4.923,5.61,1111122 
DISL,ioos:station:DISL:MHPA:1,2009-10-06T07:00:00Z,30.6671,-87.9365,4.798,5.48,1111122 
DISL,ioos:station:DISL:MHPA:1,2009-10-06T07:30:00Z,30.6671,-87.9365,4.693,5.27,1111122 
DISL,ioos:station:DISL:MHPA:1,2009-10-06T08:00:00Z,30.6671,-87.9365,4.646,5.34,1111122 
DISL,ioos:station:DISL:MHPA:1,2009-10-06T08:30:00Z,30.6671,-87.9365,4.516,5.32,1111122 
DISL,ioos:station:DISL:MHPA:1,2009-10-06T09:00:00Z,30.6671,-87.9365,4.422,5.31,1111122 
DISL,ioos:station:DISL:MHPA:1,2009-10-06T09:30:00Z,30.6671,-87.9365,4.348,5.23,1111122 
DISL,ioos:station:DISL:MHPA:1,2009-10-06T10:00:00Z,30.6671,-87.9365,4.212,5.02,1111122 
DISL,ioos:station:DISL:MHPA:1,2009-10-06T10:30:00Z,30.6671,-87.9365,4.112,5.02,1111122 
DISL,ioos:station:DISL:MHPA:1,2009-10-06T11:00:00Z,30.6671,-87.9365,4.016,4.93,1111122 
DISL,ioos:station:DISL:MHPA:1,2009-10-06T11:30:00Z,30.6671,-87.9365,3.901,4.89,1111122 
DISL,ioos:station:DISL:MHPA:1,2009-10-06T12:00:00Z,30.6671,-87.9365,3.783,4.85,1111122 
DISL,ioos:station:DISL:MHPA:1,2009-10-06T12:30:00Z,30.6671,-87.9365,3.706,4.63,1111122 
DISL,ioos:station:DISL:MHPA:1,2009-10-06T13:00:00Z,30.6671,-87.9365,3.627,4.82,1111122 
DISL,ioos:station:DISL:MHPA:1,2009-10-06T13:30:00Z,30.6671,-87.9365,3.506,4.86,1111122 
DISL,ioos:station:DISL:MHPA:1,2009-10-06T14:00:00Z,30.6671,-87.9365,3.419,4.88,1111122 
DISL,ioos:station:DISL:MHPA:1,2009-10-06T14:30:00Z,30.6671,-87.9365,3.375,4.88,1111122 
DISL,ioos:station:DISL:MHPA:1,2009-10-06T15:00:00Z,30.6671,-87.9365,3.355,4.79,1111122 
DISL,ioos:station:DISL:MHPA:1,2009-10-06T15:30:00Z,30.6671,-87.9365,3.344,4.91,1111122 